Simultaneous Nadir Overpasses (SNOs) Predictions

Prediction of SNOs between FY3D and TERRA Satellite Orbit:

Table of predicted SNOs for the next 14.0 days since TLE Epoch: 2/29/2020
Index Date (FY3D) Time (FY3D) Lat,Lon (FY3D) SZA (FY3D ) Date (TERRA) Time (TERRA) Lat,Lon (TERRA) SZA (TERRA ) Distance(km) Time Diff (sec)
1 02/29/2020 03:29:02 68.68, 127.03 76.42 02/29/2020 03:28:12 68.70, 127.04 76.45 2.23 50
2 03/02/2020 18:54:44 -68.84, 75.41 104.43 03/02/2020 18:55:13 -68.81, 75.42 104.46 3.10 29
3 03/02/2020 19:45:27 68.70,-117.10 75.43 03/02/2020 19:44:40 68.69,-117.08 75.42 1.41 47
4 03/05/2020 11:11:08 -68.81,-168.64 105.49 03/05/2020 11:11:40 -68.79,-168.71 105.51 3.10 32
5 03/05/2020 12:01:51 68.68, -1.16 74.36 03/05/2020 12:01:07 68.67, -1.22 74.36 2.59 44
6 03/08/2020 03:27:32 -68.83, -52.77 106.51 03/08/2020 03:28:04 -68.81, -52.79 106.54 2.58 32
7 03/08/2020 04:18:15 68.71, 114.70 73.35 03/08/2020 04:17:31 68.68, 114.69 73.33 3.07 44
8 03/10/2020 19:43:56 -68.80, 63.17 107.59 03/10/2020 19:44:28 -68.80, 63.11 107.60 2.39 32
9 03/10/2020 20:34:39 68.68,-129.36 72.27 03/10/2020 20:33:55 68.67,-129.41 72.26 2.50 44
10 03/13/2020 12:00:21 -68.83, 179.03 108.62 03/13/2020 12:00:50 -68.84, 179.05 108.62 1.11 29
11 03/13/2020 12:51:04 68.72, -13.50 71.25 03/13/2020 12:50:17 68.70, -13.47 71.23 2.30 47




NCC Satellite Simultaneous Nadir Overpasses (SNOs) Prediction Service
